K4LEN Weather Reports


Display with metric or nautical units.
time (UTC)temp
F
wind
direction
speed
MPH
gust
MPH
rain 1hr
in
rain 24hr
in
rain mn
in
humidity
%
barometer
mb
20260504130417 58 336 5.0 7.0 0.00 0.00 0.00 75 1019.3
20260504110345 46 252 0.0 0.0 0.00 0.00 0.00 96 1018.5
20260504100332 46 252 0.0 0.0 0.00 0.00 0.00 94 1018.4
20260504081308 51 247 0.0 0.0 0.00 0.00 0.00 82 1018.3
20260504080307 51 243 0.0 1.0 0.00 0.00 0.00 82 1018.5
20260504070252 49 248 0.0 0.0 0.00 0.00 0.00 87 1019.1
20260504060241 53 252 1.0 1.0 0.00 0.00 0.00 77 1019.5
20260504050229 55 290 3.0 3.0 0.00 0.00 0.00 71 1019.4
20260504045227 55 270 3.0 3.0 0.00 0.00 0.00 70 1019.6
20260504044222 55 311 3.0 3.0 0.00 0.00 0.00 70 1019.5
20260504043222 55 279 3.0 3.0 0.00 0.00 0.00 70 1019.6
20260504042221 55 252 1.0 2.0 0.00 0.00 0.00 71 1019.7
20260504041220 54 272 4.0 5.0 0.00 0.00 0.00 71 1019.9
20260504040219 54 251 1.0 1.0 0.00 0.00 0.00 74 1019.8
20260504035219 54 242 1.0 1.0 0.00 0.00 0.00 72 1019.9
20260504034219 55 246 2.0 2.0 0.00 0.00 0.00 72 1019.9
20260504033214 54 263 3.0 3.0 0.00 0.00 0.00 72 1019.9
20260504032214 54 265 2.0 2.0 0.00 0.00 0.00 72 1020.2
20260504031214 54 252 1.0 2.0 0.00 0.00 0.00 71 1020.0
20260504030213 55 269 3.0 3.0 0.00 0.00 0.00 70 1020.1
20260504025211 55 258 3.0 3.0 0.00 0.00 0.00 70 1020.2
20260504024211 55 249 3.0 3.0 0.00 0.00 0.00 70 1020.2
20260504023209 54 259 2.0 2.0 0.00 0.00 0.00 72 1020.3
20260504022208 54 248 0.0 0.0 0.00 0.00 0.00 74 1020.1
20260504021208 55 247 1.0 1.0 0.00 0.00 0.00 70 1020.1
20260504020207 54 261 2.0 2.0 0.00 0.00 0.00 72 1019.9
20260504015206 54 259 2.0 2.0 0.00 0.00 0.00 74 1020.0
20260504014205 53 248 1.0 1.0 0.00 0.00 0.00 77 1019.9
20260504013206 55 260 1.0 2.0 0.00 0.00 0.00 74 1019.9
20260504012200 55 251 0.0 0.0 0.00 0.00 0.00 73 1019.8
20260504011159 56 252 1.0 1.0 0.00 0.00 0.00 70 1019.7
20260504010157 57 242 0.0 0.0 0.00 0.00 0.00 67 1019.7
20260504005157 59 243 0.0 0.0 0.00 0.00 0.00 63 1019.7
20260504004151 60 248 1.0 1.0 0.00 0.00 0.00 61 1019.8
20260504003151 61 252 0.0 0.0 0.00 0.00 0.00 56 1019.4
20260504002151 62 261 2.0 2.0 0.00 0.00 0.00 52 1019.3
20260504001150 63 255 1.0 1.0 0.00 0.00 0.00 51 1019.7
20260504000151 64 265 3.0 3.0 0.00 0.00 0.00 49 1019.5
20260503235151 66 277 3.0 3.0 0.00 0.00 0.00 46 1019.6
20260503234147 66 255 1.0 2.0 0.00 0.00 0.00 43 1019.6
20260503233145 68 298 2.0 3.0 0.00 0.00 0.00 41 1019.6
20260503232145 68 252 0.0 1.0 0.00 0.00 0.00 40 1019.6
20260503231145 67 152 1.0 2.0 0.00 0.00 0.00 40 1019.9
20260503230145 69 278 3.0 3.0 0.00 0.00 0.00 39 1020.2
20260503225142 68 271 3.0 3.0 0.00 0.00 0.00 39 1020.2
20260503224137 68 242 2.0 2.0 0.00 0.00 0.00 40 1020.2
20260503223137 68 261 0.0 1.0 0.00 0.00 0.00 41 1020.3
20260503222132 68 252 1.0 1.0 0.00 0.00 0.00 41 1020.6
20260503221127 69 331 2.0 3.0 0.00 0.00 0.00 38 1020.5
20260503220126 68 170 4.0 5.0 0.00 0.00 0.00 46 1020.4
20260503215126 68 272 6.0 7.0 0.00 0.00 0.00 38 1020.5
20260503214120 69 203 5.0 6.0 0.00 0.00 0.00 38 1020.6
20260503213116 68 344 3.0 5.0 0.00 0.00 0.00 39 1020.9
20260503212111 69 224 3.0 5.0 0.00 0.00 0.00 44 1020.8
20260503211109 69 217 3.0 3.0 0.00 0.00 0.00 41 1020.9
20260503210108 67 177 3.0 5.0 0.00 0.00 0.00 44 1021.3
20260503205107 67 338 3.0 6.0 0.00 0.00 0.00 41 1021.3
20260503204101 68 342 5.0 6.0 0.00 0.00 0.00 43 1021.7
20260503203101 68 247 2.0 5.0 0.00 0.00 0.00 41 1021.5
20260503202056 68 229 3.0 3.0 0.00 0.00 0.00 41 1021.7
20260503201051 67 184 5.0 5.0 0.00 0.00 0.00 41 1022.0
20260503200050 68 166 7.0 9.0 0.00 0.00 0.00 41 1022.0
20260503195050 67 343 7.0 9.0 0.00 0.00 0.00 44 1022.4
20260503194047 66 233 0.0 1.0 0.00 0.00 0.00 42 1022.5
20260503193044 66 215 4.0 5.0 0.00 0.00 0.00 47 1022.6
20260503192042 65 208 5.0 8.0 0.00 0.00 0.00 44 1023.1
20260503191042 66 249 1.0 1.0 0.00 0.00 0.00 42 1023.0
20260503190042 66 241 1.0 1.0 0.00 0.00 0.00 41 1023.4
20260503185038 65 284 1.0 3.0 0.00 0.00 0.00 46 1023.5
20260503184037 64 190 3.0 5.0 0.00 0.00 0.00 45 1023.7
20260503183037 65 242 0.0 1.0 0.00 0.00 0.00 44 1023.8
20260503182033 66 240 0.0 1.0 0.00 0.00 0.00 47 1024.0
20260503181032 63 273 3.0 3.0 0.00 0.00 0.00 41 1024.0
20260503180026 64 230 6.0 9.0 0.00 0.00 0.00 45 1024.1
20260503175026 63 241 3.0 5.0 0.00 0.00 0.00 43 1024.3
20260503174026 63 285 4.0 5.0 0.00 0.00 0.00 41 1024.6
20260503173023 62 227 1.0 1.0 0.00 0.00 0.00 44 1024.5
20260503172024 62 163 4.0 5.0 0.00 0.00 0.00 47 1024.6
20260503171018 62 219 6.0 7.0 0.00 0.00 0.00 44 1024.7
20260503150948 58 273 2.0 2.0 0.00 0.00 0.00 51 1025.4